Find Starlink 35640

NORAD ID: 66536 Int'l Des: 2025-265 Owner: SPXS Country: US Constellation: starlink operational
LEOCIRCULAR

現在のビュー

3D地球を読み込み中...

About Starlink 35640

Starlink 35640 (NORAD 66536) is a starlink constellation satellite (v2 mini) launched Nov 19, 2025 by SPXS of US. It operates in LEO, CIRCULAR orbit with a mass of 575.00 kg.

Starlink 35640について

説明を読み込み中...

次回通過

Passes for default location (London). Set your location on the main map for personalized predictions.

高度履歴

Loading altitude history...

軌道要素

1 66536U 25265W 26196.26954889 .00009541 00000-0 35584-3 0 9998
2 66536 43.0002 277.5579 0001472 279.0583 81.0102 15.27576030 36622
Epoch: Jul 15, 2026 • Age: 19 hours

現在のステータス

高度 486.1 km
遠地点 / 近地点 N/A
速度 7.63 km/s
衛星直下点 38.92°N, 14.72°E
打ち上げ日 Nov 19, 2025
運用期間 0.6 years
タイプ internet

技術仕様

分類 Payload
質量 575.00 kg
乾燥質量 530.00 kg
総質量 575.00 kg
長さ 0.30 m
直径 4.10 m
スパン 29.00 m
形状 Box + pan
製造者 SPXS
バスタイプ Starlink V2MO
フェーズステータス In Orbit
所有者/国 SPXS/US

Most Searched